Voltar ao catálogo

SL-8 DEB

LostLEO
NORAD 39699·DEBRIS·🇷🇺 Russia

Lançado Feb 12, 1991 de Plesetsk Cosmodrome

Loading…

Próximas Passagens (próximas 24 horas)

TLE

ObsoletoSource: Space-Track

Época: Jun 11, 2024, 07:42 UTC

1 39699U 91009DN  24163.32139486 -.00000105  00000-0 -87071-3 0  9991
2 39699  74.0951 192.6862 0144016 311.3769  47.4953 12.17136854940669

Acompanhe SL-8 DEB em tempo real com AllMySat

Download on the App Store